TITAN 4B DEB, 40529

Orbit data source: Space-Track

TITAN 4B DEB, 40529 is space debris in LEO originally from a launch on Thu, 17 Aug 2000 UTC launched from the Air Force Western Test Range (AFWTR). Debris objects in space refer to the collection of defunct objects orbiting the Earth. Examples of debris include non-operational satellites, rocket bodies, and fragments generated from explosions, collisions, or faulty payload assembly.

Loading next visibility...
Identifier
40529, 2000-047F
Orbit
LEO
Country
Flag of USUS
Related business
Manufacturer
LMSS Denver
Mission
Spacecraft
Bus & Motor
Unknown
Mass
Unknown
Launch date (UTC)
2000-08-17 (25 years ago)
Launch vehicle
Unknown
Launch site
Air Force Western Test Range (AFWTR)
Object type
Payload
Rocket body
Debris
Shape & HBR
Unknown shape, 0.1 m
Radar Cross Section
Small (<0.1 m²)

Expand to show TLE details & history
Last TLE update: 8 hours ago

TLE from 8 hours ago
0 TITAN 4B DEB
1 40529U 00047F   25290.89153674  .00000795  00000-0  79546-4 0  9998
2 40529  67.9934 158.8983 0061015 235.1587 124.3808 14.95749158576508
Epoch: 2025-10-17T21:23Z
TLE epoch observation values (Epoch: 2025-10-17T21:23:48.774Z)
Latitude
-0.00005°
Longitude
171.31466°
Altitude
606.474 km
Speed
7.543 km/s
True Right ascension
10h 35m 35s
True Declination
0° 00' 00"
Sunlit
Object was in daylight at epoch
Visualization orbit readout
Latitude
Unknown
Longitude
Unknown
Altitude
Unknown
Speed
Unknown
Apparent Right ascension
Unknown
Apparent Declination
Unknown
Sunlit
N/A
Visualization observer readout
Local Sidereal Time
00:14:54
Azimuth
Unknown
Elevation
Unknown
Doppler factor
Unknown
Orbital elements
Apogee altitude
620.666 km
Perigee altitude
535.777 km
Semi-major axis
6,956.358 km
Eccentricity
0.0061
Inclination
67.9934°
RAAN
158.8983°
Arg. of periapsis
235.1587°
True anomaly
124.95535°
Mean anomaly
124.3808°
Eccentric anomaly
124.66832°
Mean motion
3.74085 °/min
Orbital period
96.23 mins
BSTAR
0.000079546
Loading maneuver chart data...
Computing Atmospheric mass density...
Loading historical data...
Loading historical data...
Loading historical data...
Loading historical data...
Loading historical data...
Loading historical data...
Loading historical data...
Other satellites on launch #47 in the year 2000 (2000-08-17 UTC)

Documentation

Showing up to 5 results
|